Location: Blue Moon Observatory
(43.0710°N, 82.8810°W)
Time: 07:27:37
(UTC-05:00)

N. Korean satellite - Visible Passes

Search period start: 19 November 2017 00:00
Search period end: 29 November 2017 00:00
Orbit: 460 x 515 km, 97.2° (Epoch: 18 November)

Date Brightness Start Highest point End Pass type
(mag) Time Alt. Az. Time Alt. Az. Time Alt. Az.
19 Nov 10.1 06:15:58 10° ENE 06:17:42 13° E 06:19:25 10° ESE visible
19 Nov 6.4 18:24:46 10° SSE 18:28:14 76° ENE 18:31:48 10° N visible
20 Nov 7.0 18:01:36 10° SE 18:04:50 36° ENE 18:08:09 10° N visible
20 Nov 9.8 19:36:45 10° WSW 19:38:32 13° W 19:40:20 10° WNW visible
21 Nov 8.1 07:00:55 10° NNE 07:04:32 45° E 07:08:08 10° S visible
21 Nov 7.9 17:38:54 10° ESE 17:41:31 20° ENE 17:44:09 10° NNE visible
21 Nov 8.8 19:11:55 10° SSW 19:14:53 25° W 19:17:54 10° NW visible
22 Nov 9.4 06:37:53 10° NE 06:40:57 24° E 06:44:01 10° SSE visible
22 Nov 7.4 18:47:53 10° S 18:51:18 51° W 18:54:49 10° NNW visible
23 Nov 10.1 06:15:33 10° ENE 06:17:18 13° E 06:19:03 10° ESE visible
23 Nov 6.4 18:24:18 10° SSE 18:27:48 76° ENE 18:31:25 10° N visible
24 Nov 7.0 18:01:08 10° SE 18:04:23 37° ENE 18:07:44 10° N visible
24 Nov 9.8 19:36:14 10° WSW 19:38:05 14° W 19:39:58 10° WNW visible
25 Nov 8.1 07:00:29 10° NNE 07:04:06 45° E 07:07:43 10° S visible
25 Nov 7.9 17:38:25 10° ESE 17:41:03 20° ENE 17:43:44 10° NNE visible
25 Nov 8.8 19:11:25 10° SSW 19:14:25 26° W 19:17:29 10° NW visible
26 Nov 9.4 06:37:26 10° NE 06:40:31 24° E 06:43:35 10° SSE visible
26 Nov 7.4 18:47:22 10° S 18:50:49 51° W 18:54:22 10° NNW visible
27 Nov 10.1 06:15:05 10° ENE 06:16:50 13° E 06:18:36 10° ESE visible
27 Nov 6.4 18:23:46 10° SSE 18:27:19 76° ENE 18:30:57 10° N visible
28 Nov 7.1 18:00:35 10° SE 18:03:53 37° ENE 18:07:16 10° N visible
28 Nov 9.8 19:35:39 10° SW 19:37:34 14° W 19:39:32 10° WNW visible
